Change the Weather History Date:

Friday, March 1, 2013

  Actual Average Record
Temperature  
Mean Temperature 73 °F -  
Max Temperature 82 °F 81 °F 87 °F (1951)
Min Temperature 64 °F 61 °F 56 °F (1970)
Cooling Degree Days 8    
Growing Degree Days 23 (Base 50)    
Moisture  
Dew Point 53 °F    
Average Humidity 51    
Maximum Humidity 68    
Minimum Humidity 37    
Precipitation  
Precipitation 0.00 in - - ()
Sea Level Pressure  
Sea Level Pressure 30.15 in    
Wind  
Wind Speed 5 mph (NNE)    
Max Wind Speed 18 mph    
Max Gust Speed 24 mph    
Visibility 10 miles    
Events      
Averages and records for this station are not official NWS values.
T = Trace of Precipitation, MM = Missing Value Source: NWS Daily Summary

Daily Weather History Graph

Daily Weather History Graph

Search for Another Location

Airport or City:

Trip Planner

Search our weather history database for the weather conditions in past years. The results will help you decide how hot, cold, wet, or windy it might be!

Date:

Astronomy

Mar. 01, 2013 Rise Set
Actual Time 6:59 AM HST 6:43 PM HST
Civil Twilight 6:37 AM HST 7:05 PM HST
Nautical Twilight 6:11 AM HST 7:31 PM HST
Astronomical Twilight 5:45 AM HST 7:57 PM HST
Moon 10:48 PM HST (3/1) 9:31 AM HST (3/1)
Length of Visible Light 12h 28m
Length of Day
11h 43m
Waning Gibbous, 81% of the Moon is Illuminated
Mar 1
Waning Gibbous
Mar 4
Last Quarter
Mar 11
New
Mar 19
First Quarter
Mar 26
Full

Hourly Weather History & Observations

Time (HST) Temp. Heat Index Dew Point Humidity Pressure Visibility Wind Dir Wind Speed Gust Speed Precip Events Conditions
12:56 AM 66.9 °F - 53.1 °F 61% 30.20 in 10.0 mi Calm Calm - N/A   Clear
1:56 AM 64.9 °F - 52.0 °F 63% 30.19 in 10.0 mi Calm Calm - N/A   Clear
2:56 AM 68.0 °F - 51.1 °F 55% 30.16 in 10.0 mi ENE 3.5 mph - N/A   Mostly Cloudy
3:56 AM 64.9 °F - 52.0 °F 63% 30.14 in 10.0 mi NE 3.5 mph - N/A   Partly Cloudy
4:56 AM 64.9 °F - 54.0 °F 68% 30.13 in 10.0 mi Calm Calm - N/A   Scattered Clouds
5:56 AM 66.9 °F - 55.0 °F 66% 30.14 in 10.0 mi ESE 3.5 mph - N/A   Mostly Cloudy
6:56 AM 70.0 °F - 48.9 °F 47% 30.16 in 10.0 mi ENE 6.9 mph - N/A   Clear
7:56 AM 73.0 °F - 48.9 °F 42% 30.17 in 10.0 mi East 6.9 mph - N/A   Scattered Clouds
8:56 AM 75.9 °F - 53.1 °F 45% 30.19 in 10.0 mi NNE 6.9 mph - N/A   Overcast
9:56 AM 77.0 °F - 55.0 °F 47% 30.20 in 10.0 mi North 10.4 mph - N/A   Mostly Cloudy
10:56 AM 78.1 °F - 55.9 °F 46% 30.19 in 10.0 mi North 18.4 mph - N/A   Mostly Cloudy
11:56 AM 80.1 °F 80.1 °F 55.0 °F 42% 30.18 in 10.0 mi SW 11.5 mph - N/A   Mostly Cloudy
12:56 PM 82.0 °F 81.3 °F 54.0 °F 38% 30.15 in 10.0 mi North 13.8 mph - N/A   Partly Cloudy
1:56 PM 82.0 °F 81.2 °F 53.1 °F 37% 30.12 in 10.0 mi West 11.5 mph - N/A   Scattered Clouds
2:56 PM 81.0 °F 80.5 °F 54.0 °F 39% 30.10 in 10.0 mi North 12.7 mph 24.2 mph N/A   Clear
3:56 PM 79.0 °F - 55.0 °F 44% 30.09 in 10.0 mi WNW 10.4 mph - N/A   Clear
4:56 PM 79.0 °F - 55.9 °F 45% 30.09 in 10.0 mi NNW 9.2 mph - N/A   Clear
5:56 PM 77.0 °F - 55.9 °F 48% 30.10 in 10.0 mi West 9.2 mph - N/A   Clear
6:56 PM 75.9 °F - 53.1 °F 45% 30.11 in 10.0 mi North 6.9 mph - N/A   Clear
7:56 PM 72.0 °F - 52.0 °F 49% 30.14 in 10.0 mi Calm Calm - N/A   Clear
8:56 PM 73.0 °F - 55.0 °F 53% 30.16 in 10.0 mi NE 3.5 mph - N/A   Partly Cloudy
9:56 PM 66.0 °F - 51.1 °F 59% 30.18 in 10.0 mi East 4.6 mph - N/A   Clear
10:27 PM 68.0 °F - 53.6 °F 60% 30.18 in 6.2 mi North 3.5 mph - N/A   Scattered Clouds
10:56 PM 66.9 °F - 52.0 °F 59% 30.18 in 10.0 mi Variable 4.6 mph - N/A   Partly Cloudy
11:56 PM 66.9 °F - 53.1 °F 61% 30.18 in 10.0 mi Calm Calm - N/A   Clear